EXPRESS AMU-3

Last updated on Mon Sep 07 2026 00:03:01 GMT+0000 (Coordinated Universal Time)

1 50002U 21123B 26248.75590992 -.00000334 00000+0 00000+0 0 9993 2 50002 0.0339 249.0557 0000095 46.2607 64.6830 1.00271456 7847
UTC large
Height (km)
Speed (km/s)
/
Latitude / Longitude
Inclination (degrees)
Orbital Period (minutes)
Azimuth
Elevation
Range (km)
Doppler Factor

Next 0 passes for location: London (51.5072 / 0.1276)

No passes found over London.
EXPRESS AMU-3